Regional Weather Roundup
Issued by NWS

Home | Current Version | Previous Version | Text Only | Print | Product List | Glossary On
Versions: 1 2 3 4 5 6 7 8 9 10 11 12 13 14 15 16 17 18 19 20 21 22 23 24 25 26 27 28 29 30 31 32 33 34 35 36 37 38 39 40 41 42 43 44 45 46 47 48 49 50
000
ASUS43 KLOT 021608
RWRIL

ILLINOIS REGIONAL WEATHER ROUNDUP
NATIONAL WEATHER SERVICE CHICAGO/ROMEOVILLE IL
1100 AM CDT WED SEP 02 2015

NOTE: "FAIR" INDICATES FEW OR NO CLOUDS BELOW 12,000 FEET WITH NO
SIGNIFICANT WEATHER AND/OR OBSTRUCTIONS TO VISIBILITY.

* THESE STATIONS ARE NOT UNDER NWS QUALITY CONTROL. THEY ALSO MAY NOT
  REPORT WEATHER SUCH AS PRECIPITATION OR FOG.

ILZ001-002-007-009-015-016-024-021700-
NORTHWEST ILLINOIS

CITY           SKY/WX    TMP DP  RH WIND       PRES   REMARKS
MOLINE         PTSUNNY   83  70  64 S8        30.02F HX  87
STERLING*      PTSUNNY   88  73  62 SW7       30.02F HX  96
SAVANNA*       PTSUNNY   83  68  60 S7        30.02S HX  86
$$

ILZ003-004-008-010-011-017-018-021700-
NORTH CENTRAL ILLINOIS

CITY           SKY/WX    TMP DP  RH WIND       PRES   REMARKS
ROCKFORD       PTSUNNY   84  70  62 SW9       30.04F HX  88
FREEPORT*      PTSUNNY   81  70  68 S10       30.04F HX  85
ROCHELLE*      MOSUNNY   81  72  74 SW5       30.05F HX  86
DE KALB*       SUNNY     84  72  67 SW8       30.06F HX  90
PERU*          SUNNY     84  70  61 SW7       30.06F HX  88
$$

ILZ005-006-012>014-019>023-021700-
NORTHEAST ILLINOIS

CITY           SKY/WX    TMP DP  RH WIND       PRES   REMARKS
CHICAGO-OHARE  MOSUNNY   84  70  62 W6        30.05F HX  88
CHICAGO-MIDWAY MOSUNNY   85  70  60 VRB3      30.05F HX  89
AURORA         SUNNY     84  72  67 SW8       30.06F HX  89
LANSING*       SUNNY     84  71  63 SW3       30.07F HX  88
JOLIET*        SUNNY     85  73  67 W5        30.06F HX  92
WAUKEGAN       MOSUNNY   83  70  64 SW6       30.03F HX  87
DUPAGE AIRPORT SUNNY     83  71  67 SW5       30.05F HX  87
KANKAKEE*      SUNNY     86  73  64 SW8       30.09S HX  93
WHEELING       SUNNY     84  68  58 VRB6      30.05F HX  87
MORRIS*        SUNNY     84  73  69 SW7       30.06S HX  90
ROMEOVILLE*    SUNNY     83  70  65 SW8       30.07S HX  87
NORTHERLY ISL    N/A     83  67  58 S6          N/A  HX  85
$$

LMZ740>746-021700-
SOUTHERN LAKE MICHIGAN

STATION/POSITION SKY/WX   TEMP    WIND        PRES    VSBY  WAVE
                          AIR SEA DIR/SP/G                  HT/PER
                          (F)     (DEG/KT/KT) (MB)    (MI)  (FT/S)
SOUTHERN BUOY              72 70  200/ 10/ 12 1016.6F         1
WILMETTE HARBOR            72 60  320/  4/  6   N/A           0
HARRISON CRIB              77     200/  7/  8   N/A
BURNHAM HARBOR             84     160/  3/  8   N/A
CALUMET HARBOR             80     200/  4/  6   N/A
BURNS HARBOR               79     240/  7/  8 1019.0S
MICHIGAN CITY              77     210/  9/  9   N/A
MICHIGAN CITY 6N           76 72  250/  6/  6   N/A           1
ST. JOSEPH                 74 72  260/  8/ 10   N/A           1/ 3
$$

ILZ025>027-034>036-040-047-049-050-058-095>099-021700-
WEST-CENTRAL ILLINOIS

CITY           SKY/WX    TMP DP  RH WIND       PRES   REMARKS
QUINCY         PTSUNNY   84  69  60 SW7       30.08S HX  88
GALESBURG*     PTSUNNY   83  71  69 S8        30.06F HX  87
MACOMB*        PTSUNNY   84  69  60 SW6       30.08F HX  87
JACKSONVILLE*  MOSUNNY   87  71  58 W10       30.09F HX  93
PITTSFIELD*    MOSUNNY   83  69  61 SW6       30.10S HX  87
$$

ILZ028>032-037-038-041>044-048-051>054-059>061-021700-
CENTRAL ILLINOIS

CITY           SKY/WX    TMP DP  RH WIND       PRES   REMARKS
PONTIAC        SUNNY     86  75  71 SW8       30.09F HX  94
BLOOMINGTON    SUNNY     85  73  67 SW6       30.11F HX  91
DECATUR        MOSUNNY   87  70  56 W9        30.11S HX  92
PEORIA         PTSUNNY   84  71  65 SW7       30.07F HX  89
LACON*         MOSUNNY   82  72  71 S5        30.05F HX  87
LINCOLN*       SUNNY     87  70  55 SW5       30.08F HX  92
SPRINGFIELD    SUNNY     87  69  54 S8        30.09F HX  91
TAYLORVILLE    SUNNY     86  70  58 SW9       30.10F HX  90
$$

ILZ033-039-045-046-055>057-062-063-021700-
EAST-CENTRAL ILLINOIS

CITY           SKY/WX    TMP DP  RH WIND       PRES   REMARKS
CHAMPAIGN      SUNNY     85  72  65 SW8       30.11F HX  91
RANTOUL*       SUNNY     85  73  67 SW6       30.11S HX  92
MATTOON        SUNNY     85  68  56 VRB6      30.11F HX  88
PARIS*         SUNNY     85  72  65 SW6       30.12F HX  90
$$

ILZ079-100>102-021700-
SOUTHWEST ILLINOIS

CITY           SKY/WX    TMP DP  RH WIND       PRES   REMARKS
ALTON          SUNNY     82  70  65 S6        30.11S HX  86
BELLEVILLE     SUNNY     85  71  62 VRB2      30.10S HX  91
CAHOKIA*       SUNNY     86  69  56 SW6       30.10F HX  90
SPARTA*        SUNNY     84  72  67 SW5       30.13S HX  89
$$

ILZ064>066-069>071-074>076-080>082-084>086-088>090-092>094-021700-
SOUTH-CENTRAL ILLINOIS

CITY           SKY/WX    TMP DP  RH WIND       PRES   REMARKS
CARBONDALE     SUNNY     84  70  62 S6        30.12F HX  88
CAIRO*         SUNNY     83  76  77 CALM      30.12F HX  91
EFFINGHAM*     SUNNY     86  66  51 S9        30.13F HX  88
MARION         SUNNY     86  72  62 S7        30.13F HX  92
MT. VERNON     SUNNY     88  70  55 S7        30.13F HX  92
CENTRALIA*     SUNNY     86  72  63 S6        30.12S HX  92
SALEM*         SUNNY     86  70  57 S3        30.12F HX  91
METROPOLIS*    SUNNY     85  73  66 CALM      30.13F HX  92
$$

ILZ067-068-072-073-078-083-087-091-021700-
SOUTHEAST ILLINOIS

CITY           SKY/WX    TMP DP  RH WIND       PRES   REMARKS
LAWRENCEVILLE  SUNNY     86  69  56 SW6       30.13F HX  90
FLORA*         SUNNY     85  67  54 SW6       30.12F HX  88
FAIRFIELD*     SUNNY     85  71  61 S6        30.12S HX  90
HARRISBURG*    SUNNY     86  71  60 S6        30.12F HX  91
ROBINSON*      SUNNY     84  69  60 W6        30.14S HX  88
CARMI*         SUNNY     85  71  61 S3        30.12F HX  90
$$

ABBREVIATIONS USED IN REMARKS
   TC - TEMPERATURE IN CELSIUS
  WCI - WIND CHILL INDEX
   HX - HEAT INDEX
  VSB - VISIBILITY
$$




USA.gov is the U.S. government's official web portal to all federal, state and local government web resources and services.